Year,Month,Day,Hour,Minute,Value (Times are PST for temperature in C)
2018,10,17,00,00,6.90
2018,10,17,00,01,6.90
2018,10,17,00,02,6.90
2018,10,17,00,03,6.90
2018,10,17,00,04,6.90
2018,10,17,00,05,6.90
2018,10,17,00,06,6.90
2018,10,17,00,07,6.90
2018,10,17,00,08,6.90
2018,10,17,00,09,6.90
2018,10,17,00,10,6.90
2018,10,17,00,11,6.80
2018,10,17,00,12,6.80
2018,10,17,00,13,6.80
2018,10,17,00,14,6.80
2018,10,17,00,15,6.80
2018,10,17,00,16,6.80
2018,10,17,00,17,6.80
2018,10,17,00,18,6.80
2018,10,17,00,19,6.70
2018,10,17,00,20,6.70
2018,10,17,00,21,6.70
2018,10,17,00,22,6.70
2018,10,17,00,23,6.70
2018,10,17,00,24,6.70
2018,10,17,00,25,6.70
2018,10,17,00,26,6.60
2018,10,17,00,27,6.60
2018,10,17,00,28,6.60
2018,10,17,00,29,6.60
2018,10,17,00,30,6.60
2018,10,17,00,31,6.50
2018,10,17,00,32,6.50
2018,10,17,00,33,6.50
2018,10,17,00,34,6.50
2018,10,17,00,35,6.50
2018,10,17,00,36,6.50
2018,10,17,00,37,6.50
2018,10,17,00,38,6.50
2018,10,17,00,39,6.40
2018,10,17,00,40,6.50
2018,10,17,00,41,6.40
2018,10,17,00,42,6.40
2018,10,17,00,43,6.50
2018,10,17,00,44,6.50
2018,10,17,00,45,6.50
2018,10,17,00,46,6.50
2018,10,17,00,47,6.50
2018,10,17,00,48,6.50
2018,10,17,00,49,6.50
2018,10,17,00,50,6.50
2018,10,17,00,51,6.50
2018,10,17,00,52,6.50
2018,10,17,00,53,6.50
2018,10,17,00,54,6.50
2018,10,17,00,55,6.50
2018,10,17,00,56,6.50
2018,10,17,00,57,6.50
2018,10,17,00,58,6.50
2018,10,17,00,59,6.50
2018,10,17,01,00,6.50
2018,10,17,01,01,6.40
2018,10,17,01,02,6.40
2018,10,17,01,03,6.40
2018,10,17,01,04,6.40
2018,10,17,01,05,6.40
2018,10,17,01,06,6.40
2018,10,17,01,07,6.40
2018,10,17,01,08,6.40
2018,10,17,01,09,6.40
2018,10,17,01,10,6.40
2018,10,17,01,11,6.40
2018,10,17,01,12,6.40
2018,10,17,01,13,6.40
2018,10,17,01,14,6.40
2018,10,17,01,15,6.40
2018,10,17,01,16,6.40
2018,10,17,01,17,6.40
2018,10,17,01,18,6.30
2018,10,17,01,19,6.30
2018,10,17,01,20,6.30
2018,10,17,01,21,6.30
2018,10,17,01,22,6.30
2018,10,17,01,23,6.30
2018,10,17,01,24,6.30
2018,10,17,01,25,6.30
2018,10,17,01,26,6.30
2018,10,17,01,27,6.30
2018,10,17,01,28,6.30
2018,10,17,01,29,6.30
2018,10,17,01,30,6.30
2018,10,17,01,31,6.30
2018,10,17,01,32,6.30
2018,10,17,01,33,6.30
2018,10,17,01,34,6.30
2018,10,17,01,35,6.30
2018,10,17,01,36,6.30
2018,10,17,01,37,6.30
2018,10,17,01,38,6.30
2018,10,17,01,39,6.30
2018,10,17,01,40,6.30
2018,10,17,01,41,6.30
2018,10,17,01,42,6.30
2018,10,17,01,43,6.30
2018,10,17,01,44,6.30
2018,10,17,01,45,6.30
2018,10,17,01,46,6.30
2018,10,17,01,47,6.20
2018,10,17,01,48,6.20
2018,10,17,01,49,6.20
2018,10,17,01,50,6.20
2018,10,17,01,51,6.20
2018,10,17,01,52,6.20
2018,10,17,01,53,6.20
2018,10,17,01,54,6.20
2018,10,17,01,55,6.20
2018,10,17,01,56,6.20
2018,10,17,01,57,6.20
2018,10,17,01,58,6.20
2018,10,17,01,59,6.20
2018,10,17,02,00,6.20
2018,10,17,02,01,6.20
2018,10,17,02,02,6.20
2018,10,17,02,03,6.20
2018,10,17,02,04,6.20
2018,10,17,02,05,6.20
2018,10,17,02,06,6.20
2018,10,17,02,07,6.20
2018,10,17,02,08,6.20
2018,10,17,02,09,6.20
2018,10,17,02,10,6.20
2018,10,17,02,11,6.10
2018,10,17,02,12,6.10
2018,10,17,02,13,6.10
2018,10,17,02,14,6.10
2018,10,17,02,15,6.10
2018,10,17,02,16,6.10
2018,10,17,02,17,6.10
2018,10,17,02,18,6.10
2018,10,17,02,19,6.20
2018,10,17,02,20,6.20
2018,10,17,02,21,6.20
2018,10,17,02,22,6.20
2018,10,17,02,23,6.20
2018,10,17,02,24,6.20
2018,10,17,02,25,6.20
2018,10,17,02,26,6.20
2018,10,17,02,27,6.20
2018,10,17,02,28,6.20
2018,10,17,02,29,6.20
2018,10,17,02,30,6.20
2018,10,17,02,31,6.20
2018,10,17,02,32,6.20
2018,10,17,02,33,6.10
2018,10,17,02,34,6.10
2018,10,17,02,35,6.10
2018,10,17,02,36,6.10
2018,10,17,02,37,6.10
2018,10,17,02,38,6.10
2018,10,17,02,39,6.10
2018,10,17,02,40,6.10
2018,10,17,02,41,6.10
2018,10,17,02,42,6.10
2018,10,17,02,43,6.10
2018,10,17,02,44,6.10
2018,10,17,02,45,6.10
2018,10,17,02,46,6.10
2018,10,17,02,47,6.10
2018,10,17,02,48,6.00
2018,10,17,02,49,6.00
2018,10,17,02,50,6.00
2018,10,17,02,51,6.00
2018,10,17,02,52,6.00
2018,10,17,02,53,6.00
2018,10,17,02,54,6.00
2018,10,17,02,55,6.00
2018,10,17,02,56,6.00
2018,10,17,02,57,5.90
2018,10,17,02,58,5.90
2018,10,17,02,59,5.90
2018,10,17,03,00,5.90
2018,10,17,03,01,5.90
2018,10,17,03,02,5.90
2018,10,17,03,03,5.90
2018,10,17,03,04,5.90
2018,10,17,03,05,5.80
2018,10,17,03,06,5.80
2018,10,17,03,07,5.80
2018,10,17,03,08,5.80
2018,10,17,03,09,5.80
2018,10,17,03,10,5.80
2018,10,17,03,11,5.80
2018,10,17,03,12,5.80
2018,10,17,03,13,5.80
2018,10,17,03,14,5.80
2018,10,17,03,15,5.80
2018,10,17,03,16,5.80
2018,10,17,03,17,5.70
2018,10,17,03,18,5.70
2018,10,17,03,19,5.70
2018,10,17,03,20,5.70
2018,10,17,03,21,5.70
2018,10,17,03,22,5.70
2018,10,17,03,23,5.80
2018,10,17,03,24,5.80
2018,10,17,03,25,5.80
2018,10,17,03,26,5.80
2018,10,17,03,27,5.70
2018,10,17,03,28,5.70
2018,10,17,03,29,5.70
2018,10,17,03,30,5.70
2018,10,17,03,31,5.70
2018,10,17,03,32,5.70
2018,10,17,03,33,5.70
2018,10,17,03,34,5.70
2018,10,17,03,35,5.70
2018,10,17,03,36,5.70
2018,10,17,03,37,5.60
2018,10,17,03,38,5.60
2018,10,17,03,39,5.60
2018,10,17,03,40,5.60
2018,10,17,03,41,5.60
2018,10,17,03,42,5.50
2018,10,17,03,43,5.50
2018,10,17,03,44,5.50
2018,10,17,03,45,5.50
2018,10,17,03,46,5.50
2018,10,17,03,47,5.50
2018,10,17,03,48,5.50
2018,10,17,03,49,5.40
2018,10,17,03,50,5.40
2018,10,17,03,51,5.40
2018,10,17,03,52,5.40
2018,10,17,03,53,5.30
2018,10,17,03,54,5.30
2018,10,17,03,55,5.30
2018,10,17,03,56,5.30
2018,10,17,03,57,5.30
2018,10,17,03,58,5.30
2018,10,17,03,59,5.30
2018,10,17,04,00,5.30
2018,10,17,04,01,5.30
2018,10,17,04,02,5.30
2018,10,17,04,03,5.30
2018,10,17,04,04,5.30
2018,10,17,04,05,5.30
2018,10,17,04,06,5.20
2018,10,17,04,07,5.20
2018,10,17,04,08,5.20
2018,10,17,04,09,5.20
2018,10,17,04,10,5.20
2018,10,17,04,11,5.20
2018,10,17,04,12,5.20
2018,10,17,04,13,5.20
2018,10,17,04,14,5.10
2018,10,17,04,15,5.10
2018,10,17,04,16,5.10
2018,10,17,04,17,5.10
2018,10,17,04,18,5.10
2018,10,17,04,19,5.10
2018,10,17,04,20,5.10
2018,10,17,04,21,5.10
2018,10,17,04,22,5.10
2018,10,17,04,23,5.10
2018,10,17,04,24,5.10
2018,10,17,04,25,5.10
2018,10,17,04,26,5.10
2018,10,17,04,27,5.10
2018,10,17,04,28,5.10
2018,10,17,04,29,5.20
2018,10,17,04,30,5.20
2018,10,17,04,31,5.20
2018,10,17,04,32,5.20
2018,10,17,04,33,5.10
2018,10,17,04,34,5.20
2018,10,17,04,35,5.10
2018,10,17,04,36,5.10
2018,10,17,04,37,5.10
2018,10,17,04,38,5.10
2018,10,17,04,39,5.10
2018,10,17,04,40,5.10
2018,10,17,04,41,5.10
2018,10,17,04,42,5.10
2018,10,17,04,43,5.10
2018,10,17,04,44,5.10
2018,10,17,04,45,5.10
2018,10,17,04,46,5.10
2018,10,17,04,47,5.00
2018,10,17,04,48,5.00
2018,10,17,04,49,5.00
2018,10,17,04,50,5.00
2018,10,17,04,51,4.90
2018,10,17,04,52,4.90
2018,10,17,04,53,4.90
2018,10,17,04,54,4.90
2018,10,17,04,55,4.90
2018,10,17,04,56,4.90
2018,10,17,04,57,4.90
2018,10,17,04,58,4.90
2018,10,17,04,59,4.80
2018,10,17,05,00,4.80
2018,10,17,05,01,4.80
2018,10,17,05,02,4.80
2018,10,17,05,03,4.80
2018,10,17,05,04,4.80
2018,10,17,05,05,4.80
2018,10,17,05,06,4.80
2018,10,17,05,07,4.80
2018,10,17,05,08,4.80
2018,10,17,05,09,4.70
2018,10,17,05,10,4.70
2018,10,17,05,11,4.70
2018,10,17,05,12,4.70
2018,10,17,05,13,4.70
2018,10,17,05,14,4.70
2018,10,17,05,15,4.70
2018,10,17,05,16,4.70
2018,10,17,05,17,4.60
2018,10,17,05,18,4.60
2018,10,17,05,19,4.60
2018,10,17,05,20,4.70
2018,10,17,05,21,4.70
2018,10,17,05,22,4.70
2018,10,17,05,23,4.70
2018,10,17,05,24,4.70
2018,10,17,05,25,4.70
2018,10,17,05,26,4.70
2018,10,17,05,27,4.70
2018,10,17,05,28,4.70
2018,10,17,05,29,4.70
2018,10,17,05,30,4.70
2018,10,17,05,31,4.70
2018,10,17,05,32,4.70
2018,10,17,05,33,4.70
2018,10,17,05,34,4.70
2018,10,17,05,35,4.70
2018,10,17,05,36,4.70
2018,10,17,05,37,4.70
2018,10,17,05,38,4.70
2018,10,17,05,39,4.70
2018,10,17,05,40,4.70
2018,10,17,05,41,4.70
2018,10,17,05,42,4.60
2018,10,17,05,43,4.60
2018,10,17,05,44,4.60
2018,10,17,05,45,4.60
2018,10,17,05,46,4.60
2018,10,17,05,47,4.60
2018,10,17,05,48,4.60
2018,10,17,05,49,4.60
2018,10,17,05,50,4.60
2018,10,17,05,51,4.60
2018,10,17,05,52,4.60
2018,10,17,05,53,4.60
2018,10,17,05,54,4.70
2018,10,17,05,55,4.70
2018,10,17,05,56,4.70
2018,10,17,05,57,4.70
2018,10,17,05,58,4.70
2018,10,17,05,59,4.70
2018,10,17,06,00,4.70
2018,10,17,06,01,4.70
2018,10,17,06,02,4.80
2018,10,17,06,03,4.80
2018,10,17,06,04,4.80
2018,10,17,06,05,4.80
2018,10,17,06,06,4.80
2018,10,17,06,07,4.80
2018,10,17,06,08,4.80
2018,10,17,06,09,4.70
2018,10,17,06,10,4.70
2018,10,17,06,11,4.70
2018,10,17,06,12,4.70
2018,10,17,06,13,4.70
2018,10,17,06,14,4.70
2018,10,17,06,15,4.70
2018,10,17,06,16,4.70
2018,10,17,06,17,4.70
2018,10,17,06,18,4.70
2018,10,17,06,19,4.60
2018,10,17,06,20,4.70
2018,10,17,06,21,4.70
2018,10,17,06,22,4.60
2018,10,17,06,23,4.60
2018,10,17,06,24,4.60
2018,10,17,06,25,4.60
2018,10,17,06,26,4.60
2018,10,17,06,27,4.60
2018,10,17,06,28,4.50
2018,10,17,06,29,4.50
2018,10,17,06,30,4.50
2018,10,17,06,31,4.40
2018,10,17,06,32,4.40
2018,10,17,06,33,4.40
2018,10,17,06,34,4.40
2018,10,17,06,35,4.40
2018,10,17,06,36,4.40
2018,10,17,06,37,4.40
2018,10,17,06,38,4.40
2018,10,17,06,39,4.40
2018,10,17,06,40,4.40
2018,10,17,06,41,4.40
2018,10,17,06,42,4.40
2018,10,17,06,43,4.40
2018,10,17,06,44,4.40
2018,10,17,06,45,4.30
2018,10,17,06,46,4.30
2018,10,17,06,47,4.40
2018,10,17,06,48,4.30
2018,10,17,06,49,4.30
2018,10,17,06,50,4.30
2018,10,17,06,51,4.30
2018,10,17,06,52,4.30
2018,10,17,06,53,4.30
2018,10,17,06,54,4.30
2018,10,17,06,55,4.30
2018,10,17,06,56,4.30
2018,10,17,06,57,4.30
2018,10,17,06,58,4.30
2018,10,17,06,59,4.30
2018,10,17,07,00,4.30
2018,10,17,07,01,4.30
2018,10,17,07,02,4.40
2018,10,17,07,03,4.40
2018,10,17,07,04,4.40
2018,10,17,07,05,4.40
2018,10,17,07,06,4.40
2018,10,17,07,07,4.40
2018,10,17,07,08,4.40
2018,10,17,07,09,4.50
2018,10,17,07,10,4.50
2018,10,17,07,11,4.50
2018,10,17,07,12,4.50
2018,10,17,07,13,4.50
2018,10,17,07,14,4.40
2018,10,17,07,15,4.40
2018,10,17,07,16,4.40
2018,10,17,07,17,4.40
2018,10,17,07,18,4.40
2018,10,17,07,19,4.40
2018,10,17,07,20,4.40
2018,10,17,07,21,4.40
2018,10,17,07,22,4.50
2018,10,17,07,23,4.50
2018,10,17,07,24,4.50
2018,10,17,07,25,4.60
2018,10,17,07,26,4.60
2018,10,17,07,27,4.60
2018,10,17,07,28,4.60
2018,10,17,07,29,4.60
2018,10,17,07,30,4.60
2018,10,17,07,31,4.60
2018,10,17,07,32,4.60
2018,10,17,07,33,4.60
2018,10,17,07,34,4.60
2018,10,17,07,35,4.50
2018,10,17,07,36,4.50
2018,10,17,07,37,4.50
2018,10,17,07,38,4.50
2018,10,17,07,39,4.50
2018,10,17,07,40,4.50
2018,10,17,07,41,4.50
2018,10,17,07,42,4.50
2018,10,17,07,43,4.50
2018,10,17,07,44,4.40
2018,10,17,07,45,4.40
2018,10,17,07,46,4.40
2018,10,17,07,47,4.40
2018,10,17,07,48,4.40
2018,10,17,07,49,4.40
2018,10,17,07,50,4.40
2018,10,17,07,51,4.40
2018,10,17,07,52,4.40
2018,10,17,07,53,4.40
2018,10,17,07,54,4.40
2018,10,17,07,55,4.40
2018,10,17,07,56,4.40
2018,10,17,07,57,4.50
2018,10,17,07,58,4.50
2018,10,17,07,59,4.50
2018,10,17,08,00,4.60
2018,10,17,08,01,4.60
2018,10,17,08,02,4.60
2018,10,17,08,03,4.60
2018,10,17,08,04,4.70
2018,10,17,08,05,4.70
2018,10,17,08,06,4.70
2018,10,17,08,07,4.70
2018,10,17,08,08,4.70
2018,10,17,08,09,4.70
2018,10,17,08,10,4.70
2018,10,17,08,11,4.70
2018,10,17,08,12,4.70
2018,10,17,08,13,4.70
2018,10,17,08,14,4.80
2018,10,17,08,15,4.80
2018,10,17,08,16,4.80
2018,10,17,08,17,4.80
2018,10,17,08,18,4.80
2018,10,17,08,19,4.90
2018,10,17,08,20,4.90
2018,10,17,08,21,4.90
2018,10,17,08,22,5.00
2018,10,17,08,23,5.00
2018,10,17,08,24,5.00
2018,10,17,08,25,5.00
2018,10,17,08,26,5.00
2018,10,17,08,27,5.00
2018,10,17,08,28,5.10
2018,10,17,08,29,5.10
2018,10,17,08,30,5.10
2018,10,17,08,31,5.10
2018,10,17,08,32,5.20
2018,10,17,08,33,5.30
2018,10,17,08,34,5.30
2018,10,17,08,35,5.40
2018,10,17,08,36,5.40
2018,10,17,08,37,5.50
2018,10,17,08,38,5.60
2018,10,17,08,39,5.70
2018,10,17,08,40,5.80
2018,10,17,08,41,5.80
2018,10,17,08,42,5.90
2018,10,17,08,43,6.00
2018,10,17,08,44,6.10
2018,10,17,08,45,6.20
2018,10,17,08,46,6.30
2018,10,17,08,47,6.30
2018,10,17,08,48,6.40
2018,10,17,08,49,6.40
2018,10,17,08,50,6.50
2018,10,17,08,51,6.50
2018,10,17,08,52,6.60
2018,10,17,08,53,6.60
2018,10,17,08,54,6.60
2018,10,17,08,55,6.70
2018,10,17,08,56,6.70
2018,10,17,08,57,6.80
2018,10,17,08,58,6.80
2018,10,17,08,59,6.90
2018,10,17,09,00,7.00
2018,10,17,09,01,7.10
2018,10,17,09,02,7.20
2018,10,17,09,03,7.20
2018,10,17,09,04,7.30
2018,10,17,09,05,7.30
2018,10,17,09,06,7.40
2018,10,17,09,07,7.40
2018,10,17,09,08,7.50
2018,10,17,09,09,7.50
2018,10,17,09,10,7.60
2018,10,17,09,11,7.60
2018,10,17,09,12,7.70
2018,10,17,09,13,7.70
2018,10,17,09,14,7.80
2018,10,17,09,15,7.80
2018,10,17,09,16,7.90
2018,10,17,09,17,8.00
2018,10,17,09,18,8.10
2018,10,17,09,19,8.20
2018,10,17,09,20,8.30
2018,10,17,09,21,8.40
2018,10,17,09,22,8.50
2018,10,17,09,23,8.60
2018,10,17,09,24,8.70
2018,10,17,09,25,8.80
2018,10,17,09,26,8.90
2018,10,17,09,27,9.00
2018,10,17,09,28,9.10
2018,10,17,09,29,9.10
2018,10,17,09,30,9.20
2018,10,17,09,31,9.30
2018,10,17,09,32,9.30
2018,10,17,09,33,9.40
2018,10,17,09,34,9.50
2018,10,17,09,35,9.60
2018,10,17,09,36,9.70
2018,10,17,09,37,9.80
2018,10,17,09,38,9.80
2018,10,17,09,39,9.90
2018,10,17,09,40,10.00
2018,10,17,09,41,10.10
2018,10,17,09,42,10.20
2018,10,17,09,43,10.30
2018,10,17,09,44,10.40
2018,10,17,09,45,10.50
2018,10,17,09,46,10.60
2018,10,17,09,47,10.70
2018,10,17,09,48,10.90
2018,10,17,09,49,11.10
2018,10,17,09,50,11.30
2018,10,17,09,51,11.40
2018,10,17,09,52,11.60
2018,10,17,09,53,11.80
2018,10,17,09,54,11.90
2018,10,17,09,55,12.10
2018,10,17,09,56,12.30
2018,10,17,09,57,12.50
2018,10,17,09,58,12.60
2018,10,17,09,59,12.80
2018,10,17,10,00,13.00
2018,10,17,10,01,13.10
2018,10,17,10,02,13.20
2018,10,17,10,03,13.30
2018,10,17,10,04,13.50
2018,10,17,10,05,13.60
2018,10,17,10,06,13.70
2018,10,17,10,07,13.80
2018,10,17,10,08,14.00
2018,10,17,10,09,14.10
2018,10,17,10,10,14.20
2018,10,17,10,11,14.30
2018,10,17,10,12,14.50
2018,10,17,10,13,14.60
2018,10,17,10,14,14.80
2018,10,17,10,15,14.90
2018,10,17,10,16,15.00
2018,10,17,10,17,15.10
2018,10,17,10,18,15.20
2018,10,17,10,19,15.40
2018,10,17,10,20,15.50
2018,10,17,10,21,15.70
2018,10,17,10,22,15.80
2018,10,17,10,23,15.90
2018,10,17,10,24,16.00
2018,10,17,10,25,16.10
2018,10,17,10,26,16.10
2018,10,17,10,27,16.20
2018,10,17,10,28,16.30
2018,10,17,10,29,16.30
2018,10,17,10,30,16.50
2018,10,17,10,31,16.50
2018,10,17,10,32,16.60
2018,10,17,10,33,16.70
2018,10,17,10,34,16.80
2018,10,17,10,35,16.90
2018,10,17,10,36,17.00
2018,10,17,10,37,17.10
2018,10,17,10,38,17.10
2018,10,17,10,39,17.20
2018,10,17,10,40,17.30
2018,10,17,10,41,17.40
2018,10,17,10,42,17.40
2018,10,17,10,43,17.50
2018,10,17,10,44,17.60
2018,10,17,10,45,17.60
2018,10,17,10,46,17.60
2018,10,17,10,47,17.70
2018,10,17,10,48,17.70
2018,10,17,10,49,17.80
2018,10,17,10,50,17.80
2018,10,17,10,51,17.80
2018,10,17,10,52,17.80
2018,10,17,10,53,17.80
2018,10,17,10,54,17.90
2018,10,17,10,55,17.90
2018,10,17,10,56,17.90
2018,10,17,10,57,18.00
2018,10,17,10,58,18.10
2018,10,17,10,59,18.10
2018,10,17,11,00,18.20
2018,10,17,11,01,18.20
2018,10,17,11,02,18.20
2018,10,17,11,03,18.30
2018,10,17,11,04,18.30
2018,10,17,11,05,18.30
2018,10,17,11,06,18.30
2018,10,17,11,07,18.30
2018,10,17,11,08,18.30
2018,10,17,11,09,18.30
2018,10,17,11,10,18.30
2018,10,17,11,11,18.40
2018,10,17,11,12,18.40
2018,10,17,11,13,18.40
2018,10,17,11,14,18.50
2018,10,17,11,15,18.50
2018,10,17,11,16,18.60
2018,10,17,11,17,18.60
2018,10,17,11,18,18.60
2018,10,17,11,19,18.60
2018,10,17,11,20,18.70
2018,10,17,11,21,18.70
2018,10,17,11,22,18.70
2018,10,17,11,23,18.70
2018,10,17,11,24,18.80
2018,10,17,11,25,18.80
2018,10,17,11,26,18.90
2018,10,17,11,27,18.90
2018,10,17,11,28,19.00
2018,10,17,11,29,19.10
2018,10,17,11,30,19.20
2018,10,17,11,31,19.20
2018,10,17,11,32,19.20
2018,10,17,11,33,19.30
2018,10,17,11,34,19.30
2018,10,17,11,35,19.30
2018,10,17,11,36,19.40
2018,10,17,11,37,19.40
2018,10,17,11,38,19.40
2018,10,17,11,39,19.30
2018,10,17,11,40,19.30
2018,10,17,11,41,19.30
2018,10,17,11,42,19.30
2018,10,17,11,43,19.30
2018,10,17,11,44,19.30
2018,10,17,11,45,19.40
2018,10,17,11,46,19.40
2018,10,17,11,47,19.30
2018,10,17,11,48,19.30
2018,10,17,11,49,19.30
2018,10,17,11,50,19.30
2018,10,17,11,51,19.30
2018,10,17,11,52,19.30
2018,10,17,11,53,19.30
2018,10,17,11,54,19.40
2018,10,17,11,55,19.40
2018,10,17,11,56,19.40
2018,10,17,11,57,19.50
2018,10,17,11,58,19.50
2018,10,17,11,59,19.60
2018,10,17,12,00,19.70
2018,10,17,12,01,19.70
2018,10,17,12,02,19.80
2018,10,17,12,03,19.80
2018,10,17,12,04,19.90
2018,10,17,12,05,19.90
2018,10,17,12,06,19.90
2018,10,17,12,07,19.90
2018,10,17,12,08,20.00
2018,10,17,12,09,20.00
2018,10,17,12,10,19.90
2018,10,17,12,11,19.80
2018,10,17,12,12,19.80
2018,10,17,12,13,19.80
2018,10,17,12,14,19.80
2018,10,17,12,15,19.70
2018,10,17,12,16,19.70
2018,10,17,12,17,19.70
2018,10,17,12,18,19.70
2018,10,17,12,19,19.80
2018,10,17,12,20,19.80
2018,10,17,12,21,19.80
2018,10,17,12,22,19.90
2018,10,17,12,23,19.90
2018,10,17,12,24,19.90
2018,10,17,12,25,19.90
2018,10,17,12,26,19.90
2018,10,17,12,27,20.00
2018,10,17,12,28,20.00
2018,10,17,12,29,20.00
2018,10,17,12,30,20.00
2018,10,17,12,31,20.00
2018,10,17,12,32,20.00
2018,10,17,12,33,20.00
2018,10,17,12,34,19.90
2018,10,17,12,35,19.90
2018,10,17,12,36,19.90
2018,10,17,12,37,20.00
2018,10,17,12,38,20.00
2018,10,17,12,39,20.10
2018,10,17,12,40,20.10
2018,10,17,12,41,20.10
2018,10,17,12,42,20.00
2018,10,17,12,43,20.00
2018,10,17,12,44,20.00
2018,10,17,12,45,20.00
2018,10,17,12,46,20.10
2018,10,17,12,47,20.20
2018,10,17,12,48,20.30
2018,10,17,12,49,20.30
2018,10,17,12,50,20.40
2018,10,17,12,51,20.50
2018,10,17,12,52,20.50
2018,10,17,12,53,20.60
2018,10,17,12,54,20.60
2018,10,17,12,55,20.60
2018,10,17,12,56,20.70
2018,10,17,12,57,20.60
2018,10,17,12,58,20.50
2018,10,17,12,59,20.40
2018,10,17,13,00,20.30
2018,10,17,13,01,20.30
2018,10,17,13,02,20.30
2018,10,17,13,03,20.30
2018,10,17,13,04,20.30
2018,10,17,13,05,20.30
2018,10,17,13,06,20.40
2018,10,17,13,07,20.30
2018,10,17,13,08,20.40
2018,10,17,13,09,20.40
2018,10,17,13,10,20.40
2018,10,17,13,11,20.50
2018,10,17,13,12,20.60
2018,10,17,13,13,20.70
2018,10,17,13,14,20.80
2018,10,17,13,15,20.90
2018,10,17,13,16,20.90
2018,10,17,13,17,20.90
2018,10,17,13,18,21.00
2018,10,17,13,19,21.00
2018,10,17,13,20,21.00
2018,10,17,13,21,21.00
2018,10,17,13,22,20.90
2018,10,17,13,23,20.80
2018,10,17,13,24,20.80
2018,10,17,13,25,20.80
2018,10,17,13,26,20.70
2018,10,17,13,27,20.70
2018,10,17,13,28,20.70
2018,10,17,13,29,20.70
2018,10,17,13,30,20.70
2018,10,17,13,31,20.60
2018,10,17,13,32,20.60
2018,10,17,13,33,20.60
2018,10,17,13,34,20.70
2018,10,17,13,35,20.70
2018,10,17,13,36,20.80
2018,10,17,13,37,20.90
2018,10,17,13,38,20.90
2018,10,17,13,39,21.00
2018,10,17,13,40,21.00
2018,10,17,13,41,21.10
2018,10,17,13,42,21.10
2018,10,17,13,43,21.10
2018,10,17,13,44,21.10
2018,10,17,13,45,21.10
2018,10,17,13,46,21.20
2018,10,17,13,47,21.20
2018,10,17,13,48,21.20
2018,10,17,13,49,21.30
2018,10,17,13,50,21.30
2018,10,17,13,51,21.40
2018,10,17,13,52,21.60
2018,10,17,13,53,21.60
2018,10,17,13,54,21.60
2018,10,17,13,55,21.60
2018,10,17,13,56,21.60
2018,10,17,13,57,21.60
2018,10,17,13,58,21.60
2018,10,17,13,59,21.60
2018,10,17,14,00,21.60
2018,10,17,14,01,21.60
2018,10,17,14,02,21.60
2018,10,17,14,03,21.60
2018,10,17,14,04,21.60
2018,10,17,14,05,21.70
2018,10,17,14,06,21.70
2018,10,17,14,07,21.70
2018,10,17,14,08,21.80
2018,10,17,14,09,21.80
2018,10,17,14,10,21.80
2018,10,17,14,11,21.80
2018,10,17,14,12,21.80
2018,10,17,14,13,21.70
2018,10,17,14,14,21.70
2018,10,17,14,15,21.60
2018,10,17,14,16,21.60
2018,10,17,14,17,21.60
2018,10,17,14,18,21.60
2018,10,17,14,19,21.70
2018,10,17,14,20,21.70
2018,10,17,14,21,21.70
2018,10,17,14,22,21.80
2018,10,17,14,23,21.90
2018,10,17,14,24,22.00
2018,10,17,14,25,22.10
2018,10,17,14,26,22.20
2018,10,17,14,27,22.20
2018,10,17,14,28,22.20
2018,10,17,14,29,22.30
2018,10,17,14,30,22.30
2018,10,17,14,31,22.30
2018,10,17,14,32,22.30
2018,10,17,14,33,22.30
2018,10,17,14,34,22.30
2018,10,17,14,35,22.20
2018,10,17,14,36,22.00
2018,10,17,14,37,21.90
2018,10,17,14,38,21.80
2018,10,17,14,39,21.80
2018,10,17,14,40,21.70
2018,10,17,14,41,21.60
2018,10,17,14,42,21.40
2018,10,17,14,43,21.40
2018,10,17,14,44,21.30
2018,10,17,14,45,21.30
2018,10,17,14,46,21.20
2018,10,17,14,47,21.20
2018,10,17,14,48,21.20
2018,10,17,14,49,21.30
2018,10,17,14,50,21.30
2018,10,17,14,51,21.30
2018,10,17,14,52,21.40
2018,10,17,14,53,21.50
2018,10,17,14,54,21.50
2018,10,17,14,55,21.60
2018,10,17,14,56,21.60
2018,10,17,14,57,21.70
2018,10,17,14,58,21.70
2018,10,17,14,59,21.80
2018,10,17,15,00,21.80
2018,10,17,15,01,21.80
2018,10,17,15,02,21.70
2018,10,17,15,03,21.70
2018,10,17,15,04,21.60
2018,10,17,15,05,21.50
2018,10,17,15,06,21.30
2018,10,17,15,07,21.20
2018,10,17,15,08,21.00
2018,10,17,15,09,21.00
2018,10,17,15,10,20.90
2018,10,17,15,11,20.90
2018,10,17,15,12,20.80
2018,10,17,15,13,20.70
2018,10,17,15,14,20.70
2018,10,17,15,15,20.60
2018,10,17,15,16,20.60
2018,10,17,15,17,20.60
2018,10,17,15,18,20.50
2018,10,17,15,19,20.50
2018,10,17,15,20,20.40
2018,10,17,15,21,20.30
2018,10,17,15,22,20.40
2018,10,17,15,23,20.50
2018,10,17,15,24,20.50
2018,10,17,15,25,20.50
2018,10,17,15,26,20.60
2018,10,17,15,27,20.60
2018,10,17,15,28,20.50
2018,10,17,15,29,20.50
2018,10,17,15,30,20.50
2018,10,17,15,31,20.50
2018,10,17,15,32,20.60
2018,10,17,15,33,20.60
2018,10,17,15,34,20.60
2018,10,17,15,35,20.70
2018,10,17,15,36,20.70
2018,10,17,15,37,20.80
2018,10,17,15,38,20.90
2018,10,17,15,39,21.00
2018,10,17,15,40,21.10
2018,10,17,15,41,21.10
2018,10,17,15,42,21.20
2018,10,17,15,43,21.30
2018,10,17,15,44,21.30
2018,10,17,15,45,21.40
2018,10,17,15,46,21.30
2018,10,17,15,47,21.30
2018,10,17,15,48,21.30
2018,10,17,15,49,21.30
2018,10,17,15,50,21.40
2018,10,17,15,51,21.30
2018,10,17,15,52,21.20
2018,10,17,15,53,21.10
2018,10,17,15,54,20.90
2018,10,17,15,55,20.80
2018,10,17,15,56,20.70
2018,10,17,15,57,20.60
2018,10,17,15,58,20.50
2018,10,17,15,59,20.40
2018,10,17,16,00,20.30
2018,10,17,16,01,20.30
2018,10,17,16,02,20.20
2018,10,17,16,03,20.20
2018,10,17,16,04,20.10
2018,10,17,16,05,20.10
2018,10,17,16,06,20.10
2018,10,17,16,07,20.10
2018,10,17,16,08,20.10
2018,10,17,16,09,20.00
2018,10,17,16,10,20.00
2018,10,17,16,11,19.90
2018,10,17,16,12,19.90
2018,10,17,16,13,19.90
2018,10,17,16,14,19.90
2018,10,17,16,15,19.90
2018,10,17,16,16,19.90
2018,10,17,16,17,19.90
2018,10,17,16,18,19.90
2018,10,17,16,19,20.00
2018,10,17,16,20,20.00
2018,10,17,16,21,20.10
2018,10,17,16,22,20.10
2018,10,17,16,23,20.10
2018,10,17,16,24,20.10
2018,10,17,16,25,20.20
2018,10,17,16,26,20.20
2018,10,17,16,27,20.30
2018,10,17,16,28,20.40
2018,10,17,16,29,20.40
2018,10,17,16,30,20.50
2018,10,17,16,31,20.50
2018,10,17,16,32,20.50
2018,10,17,16,33,20.40
2018,10,17,16,34,20.40
2018,10,17,16,35,20.40
2018,10,17,16,36,20.40
2018,10,17,16,37,20.40
2018,10,17,16,38,20.40
2018,10,17,16,39,20.40
2018,10,17,16,40,20.40
2018,10,17,16,41,20.30
2018,10,17,16,42,20.30
2018,10,17,16,43,20.30
2018,10,17,16,44,20.30
2018,10,17,16,45,20.20
2018,10,17,16,46,20.20
2018,10,17,16,47,20.10
2018,10,17,16,48,20.10
2018,10,17,16,49,20.10
2018,10,17,16,50,20.10
2018,10,17,16,51,20.20
2018,10,17,16,52,20.20
2018,10,17,16,53,20.20
2018,10,17,16,54,20.20
2018,10,17,16,55,20.10
2018,10,17,16,56,20.10
2018,10,17,16,57,20.10
2018,10,17,16,58,20.10
2018,10,17,16,59,20.10
2018,10,17,17,00,20.10
2018,10,17,17,01,20.10
2018,10,17,17,02,20.20
2018,10,17,17,03,20.20
2018,10,17,17,04,20.30
2018,10,17,17,05,20.30
2018,10,17,17,06,20.30
2018,10,17,17,07,20.30
2018,10,17,17,08,20.30
2018,10,17,17,09,20.30
2018,10,17,17,10,20.30
2018,10,17,17,11,20.30
2018,10,17,17,12,20.30
2018,10,17,17,13,20.20
2018,10,17,17,14,20.10
2018,10,17,17,15,20.10
2018,10,17,17,16,20.10
2018,10,17,17,17,20.00
2018,10,17,17,18,20.00
2018,10,17,17,19,19.90
2018,10,17,17,20,19.90
2018,10,17,17,21,19.90
2018,10,17,17,22,19.90
2018,10,17,17,23,19.80
2018,10,17,17,24,19.80
2018,10,17,17,25,19.80
2018,10,17,17,26,19.70
2018,10,17,17,27,19.60
2018,10,17,17,28,19.50
2018,10,17,17,29,19.40
2018,10,17,17,30,19.30
2018,10,17,17,31,19.20
2018,10,17,17,32,19.10
2018,10,17,17,33,19.10
2018,10,17,17,34,19.00
2018,10,17,17,35,18.90
2018,10,17,17,36,18.90
2018,10,17,17,37,18.80
2018,10,17,17,38,18.80
2018,10,17,17,39,18.70
2018,10,17,17,40,18.70
2018,10,17,17,41,18.60
2018,10,17,17,42,18.60
2018,10,17,17,43,18.50
2018,10,17,17,44,18.50